Location: Unspecified
(35.6961°N, 0.0000°E)
Time: 13:10:26
(UTC+00:00)

UNISAT 6 - Pass Details

Date: 21 June 2019
Orbit: 607 x 689 km, 97.8° (Epoch: 22 July)

Event Time Altitude Azimuth Distance (km) Brightness Sun altitude
Rises 21:19:40 0° 4° (N) 2,885 ? -19.5°
Reaches altitude 10° 21:21:55 10° 358° (N) 1,984 ? -19.8°
Maximum altitude 21:26:00 44° 286° (WNW) 862 ? -20.3°
Enters shadow 21:29:47 12° 216° (SW) 1,866 ? -20.8°
